Regional Weather Roundup
Issued by NWS

Home | Current Version | Previous Version | Graphics & Text | Print | Product List | Glossary Off
Versions: 1 2 3 4 5 6 7 8 9 10 11 12 13 14 15 16 17 18 19 20 21 22 23 24 25 26 27 28 29 30 31 32 33 34 35 36 37 38 39 40 41 42 43 44 45 46 47 48 49 50

000
ASUS43 KDMX 221807
RWRIA

WEATHER ROUNDUP FOR IOWA
NATIONAL WEATHER SERVICE DES MOINES IA
1200 PM CST MON DEC 22 2014

NOTE: "FAIR" INDICATES FEW OR NO CLOUDS BELOW 12,000 FEET WITH NO
SIGNIFICANT WEATHER AND/OR OBSTRUCTIONS TO VISIBILITY.

* - THESE STATIONS ARE NOT NWS STATIONS...THUS NOT UNDER NWS
QUALITY CONTROL.  THEY ALSO DO NOT REPORT WEATHER SUCH
AS PRECIPITATION OR FOG.

IAZ001>003-012>014-020>022-031>034-043>046-221900-
   NORTHWEST IOWA

CITY           SKY/WX    TMP DP  RH WIND       PRES   REMARKS
CARROLL *      CLOUDY    41  39  93 SE10G18   29.49F FOG
CHEROKEE *     LGT RAIN  40  40 100 SE14      29.46F WCI  32
DENISON *      CLOUDY    41  41 100 S13       29.45F FOG
LE MARS *      CLOUDY    41  41 100 S8        29.44F FOG
ORANGE CITY *  DRIZZLE   41  39  93 S8        29.44F
SHELDON *      MIX PCPN  39  39 100 SE16      29.44F WCI  30
SIOUX CITY     CLOUDY    42  41  96 S10       29.45F FOG
6HR MIN TEMP:  42; 6HR MAX TEMP:  43; 6HR PCP:  0.13;

SPENCER        CLOUDY    40  37  89 SE17      29.48F WCI  31
6HR MIN TEMP:  39; 6HR MAX TEMP:  40; 6HR PCP:  0.09;

STORM LAKE *   MIX PCPN  39  39 100 SE17      29.47F WCI  30
$$

IAZ055>058-069>071-079>083-090>094-221900-
   SOUTHWEST IOWA

CITY           SKY/WX    TMP DP  RH WIND       PRES   REMARKS
ATLANTIC *     MIX PCPN  41  41 100 S12G17    29.48F
AUDUBON *      DRIZZLE   39  36  87 S9        29.49F WCI  33
CLARINDA *     CLOUDY    43  41  93 SE8G14    29.50F
COUNCIL BLFS * CLOUDY    41  41 100 SE13      29.44F
CRESTON *      CLOUDY    39  39 100 SE14      29.51F FOG     WCI  31
HARLAN  *      MIX PCPN  41  41 100 SE14      29.50F
LAMONI         LGT RAIN  40  38  93 SE10      29.52F FOG     WCI  33
6HR MIN TEMP:  39; 6HR MAX TEMP:  40; 6HR PCP:  0.09;

RED OAK *      MIX PCPN  43  43 100 SE10      29.48F
SHENANDOAH *   PTSUNNY   43  43 100 SE14      29.47F FOG
$$

IAZ047>049-059>061-072>074-084-221900-
   CENTRAL IOWA

CITY           SKY/WX    TMP DP  RH WIND       PRES   REMARKS
AMES           LGT RAIN  39  37  92 SE16      29.55F FOG     WCI  30
6HR MIN TEMP:  38; 6HR MAX TEMP:  39; 6HR PCP:  0.09;

ANKENY *       CLOUDY    39  39 100 SE10      29.55F FOG     WCI  32
CHARITON *     MIX PCPN  39  39 100 SE10      29.55F WCI  32
DES MOINES     LGT RAIN  41  38  89 SE13      29.55F FOG
6HR MIN TEMP:  40; 6HR MAX TEMP:  41; 6HR PCP:  0.12;

GRINNELL*      LGT RAIN  37  36  93 SE10      29.59F WCI  30
KNOXVILLE *    CLOUDY    39  37  93 SE10      29.55F FOG     WCI  32
MARSHALLTOWN   LGT RAIN  37  35  92 SE14      29.58F FOG     WCI  28
6HR MIN TEMP:  36; 6HR MAX TEMP:  38; 6HR PCP:  0.05;

PELLA *        LGT RAIN  38  37  96 SE13      29.59F WCI  30
PERRY *        DRIZZLE   41  41 100 SE14      29.52F
$$

IAZ004>006-015-016-023>025-035-036-221900-
   NORTH CENTRAL IOWA

CITY           SKY/WX    TMP DP  RH WIND       PRES   REMARKS
ALGONA *       MIX PCPN  37  37 100 SE15G22   29.53F WCI  28
CLARION *      CLOUDY    37  37 100 SE16G23   29.55F FOG     WCI  28
ESTHERVILLE    CLOUDY    37  37 100 SE20      29.50F FOG     WCI  27
6HR MIN TEMP:  37; 6HR MAX TEMP:  37; 6HR PCP:  0.04;

FORT DODGE *   CLOUDY    39  36  87 SE12      29.53F WCI  32
MASON CITY     MIX PCPN  35  33  92 SE14      29.59F FOG     WCI  26
6HR MIN TEMP:  35; 6HR MAX TEMP:  37; 6HR PCP:  0.05;

FOREST CITY *  LGT RAIN  36  34  93 SE14      29.57F WCI  27
IOWA FALLS *   DRIZZLE   37  35  94 SE12      29.58F WCI  29
$$

IAZ007>011-017>019-026>030-037>042-050>054-066-221900-
   NORTHEAST IOWA

CITY           SKY/WX    TMP DP  RH WIND       PRES   REMARKS
CEDAR RAPIDS   LGT RAIN  37  36  96 E13       29.62F FOG     WCI  29
6HR MIN TEMP:  36; 6HR MAX TEMP:  37; 6HR PCP:  0.02;

CHARLES CITY * LGT SNOW  36  36 100 SE13G18   29.62F WCI  27
CLINTON *      CLOUDY    36  34  93 E18       29.70F WCI  25
DECORAH *      SUNNY     37  34  87 SE13G22   29.65F WCI  29
DUBUQUE        CLOUDY    36  31  82 SE17      29.68F HAZE    WCI  26
6HR MIN TEMP:  33; 6HR MAX TEMP:  37;

MONTICELLO *   MIX PCPN  37  36  93 E14G21    29.65F WCI  29
OELWEIN *      MIX PCPN  37  36  93 SE16      29.64F WCI  28
WATERLOO       LGT RAIN  36  35  96 SE14      29.62F FOG     WCI  27
6HR MIN TEMP:  36; 6HR MAX TEMP:  37; 6HR PCP:  0.03;

$$

IAZ064-065-067-068-078-221900-
   EAST CENTRAL IOWA

CITY           SKY/WX    TMP DP  RH WIND       PRES   REMARKS
DAVENPORT      LGT RAIN  36  33  89 E15       29.66F FOG     WCI  27
6HR MIN TEMP:  35; 6HR MAX TEMP:  37; 6HR PCP:  0.02;

IOWA CITY      LGT RAIN  37  35  92 SE7       29.64F FOG     WCI  32
6HR MIN TEMP:  37; 6HR MAX TEMP:  38; 6HR PCP:  0.04;

MT. PLEASANT * LGT RAIN  37  37 100 SE10      29.62F WCI  29
MUSCATINE *    LGT RAIN  39  37  93 SE7       29.65F WCI  34
QUAD CITIES    LGT RAIN  37  34  89 E15G24    29.65F FOG     WCI  28
6HR MIN TEMP:  36; 6HR MAX TEMP:  37; 6HR PCP:  0.05;

$$

IAZ062-063-075>077-085>089-095>099-221900-
   SOUTHEAST IOWA

CITY           SKY/WX    TMP DP  RH WIND       PRES   REMARKS
BURLINGTON     CLOUDY    38  37  97 SE10      29.63F FOG     WCI  31
6HR MIN TEMP:  37; 6HR MAX TEMP:  39; 6HR PCP:  0.11;

FAIRFIELD *    CLOUDY    37  36  93 SE9       29.61F FOG     WCI  31
FORT MADISON * DRIZZLE   39  39 100 SE7       29.63F WCI  34
KEOKUK *       CLOUDY    39  39 100 SE7       29.61F FOG     WCI  34
OSKALOOSA *    LGT RAIN  37  36  96 SE10      29.60F WCI  30
CENTERVILLE *  CLOUDY    39  39 100 SE12      29.57F WCI  32
OTTUMWA        LGT RAIN  38  36  92 SE13      29.59F FOG     WCI  30
6HR MIN TEMP:  38; 6HR MAX TEMP:  39; 6HR PCP:  0.06;

WASHINGTON *   CLOUDY    37  37 100 SE14      29.62F FOG     WCI  29
$$

ABBREVIATIONS USED IN REMARKS
   TC - TEMPERATURES IN CELSIUS
  WCI - WIND CHILL INDEX
   HX - HEAT INDEX
  VSB - VISIBILITY
$$




USA.gov is the U.S. government's official web portal to all federal, state and local government web resources and services.